Time,TemperatureF,DewpointF,PressureIn,WindDirection,WindDirectionDegrees,WindSpeedMPH,WindSpeedGustMPH,Humidity,HourlyPrecipIn,Conditions,Clouds,dailyrainin,SoftwareType,DateUTC
2013-09-03 00:02:00,77.0,66.9,29.89,SSE,148,0.0,0.0,71,0.00,,,0.00,meteohub,2013-09-03 05:02:00,
2013-09-03 00:07:00,76.8,66.7,29.88,SSE,149,0.0,0.0,71,0.00,,,0.00,meteohub,2013-09-03 05:07:00,
2013-09-03 00:12:00,76.8,67.1,29.88,SSE,148,0.0,0.0,72,0.00,,,0.00,meteohub,2013-09-03 05:12:00,
2013-09-03 00:17:00,76.6,66.6,29.89,SSE,148,0.0,0.0,71,0.00,,,0.00,meteohub,2013-09-03 05:17:00,
2013-09-03 00:22:00,76.6,66.6,29.88,SSE,148,0.0,0.0,71,0.00,,,0.00,meteohub,2013-09-03 05:22:00,
2013-09-03 00:27:00,76.6,66.6,29.89,SSE,148,0.0,0.0,71,0.00,,,0.00,meteohub,2013-09-03 05:27:00,
2013-09-03 00:32:00,76.5,66.7,29.88,SSE,149,0.0,0.0,72,0.00,,,0.00,meteohub,2013-09-03 05:32:00,
2013-09-03 00:37:00,76.3,66.6,29.89,SSE,148,0.0,0.0,72,0.00,,,0.00,meteohub,2013-09-03 05:37:00,
2013-09-03 00:42:00,76.3,66.6,29.89,SSE,148,0.0,0.0,72,0.00,,,0.00,meteohub,2013-09-03 05:42:00,
2013-09-03 00:48:00,76.3,66.6,29.89,SSE,148,0.0,0.0,72,0.00,,,0.00,meteohub,2013-09-03 05:48:00,
2013-09-03 00:53:00,76.3,66.6,29.89,SSE,148,0.0,0.0,72,0.00,,,0.00,meteohub,2013-09-03 05:53:00,
2013-09-03 00:58:00,76.3,66.6,29.89,SSE,148,0.0,0.0,72,0.00,,,0.00,meteohub,2013-09-03 05:58:00,
2013-09-03 01:03:00,76.3,66.6,29.89,SSE,149,0.0,0.0,72,0.00,,,0.00,meteohub,2013-09-03 06:03:00,
2013-09-03 01:08:00,76.3,66.6,29.89,SSE,148,0.0,0.0,72,0.00,,,0.00,meteohub,2013-09-03 06:08:00,
2013-09-03 01:13:00,75.9,66.2,29.89,SSE,148,0.0,0.0,72,0.00,,,0.00,meteohub,2013-09-03 06:13:00,
2013-09-03 01:18:00,75.7,66.0,29.89,SSE,148,0.0,0.0,72,0.00,,,0.00,meteohub,2013-09-03 06:18:00,
2013-09-03 01:23:00,75.6,65.8,29.89,SSE,148,0.0,0.0,72,0.00,,,0.00,meteohub,2013-09-03 06:23:00,
2013-09-03 01:28:00,75.2,66.4,29.90,SSE,149,0.0,0.0,74,0.00,,,0.00,meteohub,2013-09-03 06:28:00,
2013-09-03 01:33:00,74.8,66.0,29.90,SSE,148,0.0,0.0,74,0.00,,,0.00,meteohub,2013-09-03 06:33:00,
2013-09-03 01:38:00,74.5,66.0,29.89,SSE,149,0.0,0.0,75,0.00,,,0.00,meteohub,2013-09-03 06:38:00,
2013-09-03 01:43:00,74.1,66.0,29.90,SSE,148,0.0,0.0,76,0.00,,,0.00,meteohub,2013-09-03 06:43:00,
2013-09-03 01:48:00,73.9,65.8,29.90,SSE,148,0.0,0.0,76,0.00,,,0.00,meteohub,2013-09-03 06:48:00,
2013-09-03 01:53:00,73.8,66.0,29.90,SSE,148,0.0,0.0,77,0.00,,,0.00,meteohub,2013-09-03 06:53:00,
2013-09-03 01:58:00,73.9,65.8,29.90,SSE,148,0.0,0.0,76,0.00,,,0.00,meteohub,2013-09-03 06:58:00,
2013-09-03 02:03:00,73.9,65.8,29.89,SSE,148,0.0,0.0,76,0.00,,,0.00,meteohub,2013-09-03 07:03:00,
2013-09-03 02:08:00,73.8,65.7,29.89,SSE,148,0.0,0.0,76,0.00,,,0.00,meteohub,2013-09-03 07:08:00,
2013-09-03 02:13:00,73.8,65.7,29.90,SSE,148,0.0,0.0,76,0.00,,,0.00,meteohub,2013-09-03 07:13:00,
2013-09-03 02:18:00,73.9,65.5,29.89,SSE,148,0.0,0.0,75,0.00,,,0.00,meteohub,2013-09-03 07:18:00,
2013-09-03 02:23:00,73.9,65.5,29.89,SSE,148,0.0,0.0,75,0.00,,,0.00,meteohub,2013-09-03 07:23:00,
2013-09-03 02:28:00,73.9,65.5,29.90,SSE,148,0.0,0.0,75,0.00,,,0.00,meteohub,2013-09-03 07:28:00,
2013-09-03 02:33:00,73.9,65.5,29.89,SSE,148,0.0,0.0,75,0.00,,,0.00,meteohub,2013-09-03 07:33:00,
2013-09-03 02:38:00,73.8,64.9,29.89,SSE,148,0.0,0.0,74,0.00,,,0.00,meteohub,2013-09-03 07:38:00,
2013-09-03 02:43:00,73.6,65.1,29.90,SSE,148,0.0,0.0,75,0.00,,,0.00,meteohub,2013-09-03 07:43:00,
2013-09-03 02:48:00,73.4,65.3,29.90,SSE,148,0.0,0.0,76,0.00,,,0.00,meteohub,2013-09-03 07:48:00,
2013-09-03 02:53:00,73.4,65.3,29.89,SSE,148,0.0,0.0,76,0.00,,,0.00,meteohub,2013-09-03 07:53:00,
2013-09-03 02:58:00,73.4,65.3,29.89,SSE,148,0.0,0.0,76,0.00,,,0.00,meteohub,2013-09-03 07:58:00,
2013-09-03 03:03:00,73.2,65.1,29.90,SSE,148,0.0,0.0,76,0.00,,,0.00,meteohub,2013-09-03 08:03:00,
2013-09-03 03:08:00,73.2,65.1,29.89,SSE,148,0.0,0.0,76,0.00,,,0.00,meteohub,2013-09-03 08:08:00,
2013-09-03 03:13:00,73.2,65.1,29.89,SSE,148,0.0,0.0,76,0.00,,,0.00,meteohub,2013-09-03 08:13:00,
2013-09-03 03:18:00,73.0,64.9,29.89,SSE,148,0.0,0.0,76,0.00,,,0.00,meteohub,2013-09-03 08:18:00,
2013-09-03 03:23:00,73.0,64.6,29.89,SSE,148,0.0,0.0,75,0.00,,,0.00,meteohub,2013-09-03 08:23:00,
2013-09-03 03:28:00,72.9,64.8,29.89,SSE,148,0.0,0.0,76,0.00,,,0.00,meteohub,2013-09-03 08:28:00,
2013-09-03 03:33:00,72.9,64.8,29.89,SSE,148,0.0,0.0,76,0.00,,,0.00,meteohub,2013-09-03 08:33:00,
2013-09-03 03:38:00,72.7,64.8,29.90,SSE,148,0.0,0.0,76,0.00,,,0.00,meteohub,2013-09-03 08:38:00,
2013-09-03 03:43:00,72.7,64.8,29.90,SSE,148,0.0,0.0,76,0.00,,,0.00,meteohub,2013-09-03 08:43:00,
2013-09-03 03:48:00,72.7,64.8,29.90,SSE,149,0.0,0.0,76,0.00,,,0.00,meteohub,2013-09-03 08:48:00,
2013-09-03 03:53:00,72.5,64.6,29.90,SSE,149,0.0,0.0,76,0.00,,,0.00,meteohub,2013-09-03 08:53:00,
2013-09-03 03:58:00,72.5,64.6,29.90,SSE,148,0.0,0.0,76,0.00,,,0.00,meteohub,2013-09-03 08:58:00,
2013-09-03 04:03:00,72.5,64.6,29.90,SSE,148,0.0,0.0,76,0.00,,,0.00,meteohub,2013-09-03 09:03:00,
2013-09-03 04:08:00,72.5,64.6,29.90,SSE,148,0.0,0.0,76,0.00,,,0.00,meteohub,2013-09-03 09:08:00,
2013-09-03 04:13:00,72.5,64.6,29.90,SSE,148,0.0,0.0,76,0.00,,,0.00,meteohub,2013-09-03 09:13:00,
2013-09-03 04:19:00,72.5,64.6,29.90,SSE,148,0.0,0.0,76,0.00,,,0.00,meteohub,2013-09-03 09:19:00,
2013-09-03 04:24:00,72.5,64.6,29.90,SSE,148,0.0,0.0,76,0.00,,,0.00,meteohub,2013-09-03 09:24:00,
2013-09-03 04:29:00,72.3,64.4,29.90,SSE,148,0.0,0.0,76,0.00,,,0.00,meteohub,2013-09-03 09:29:00,
2013-09-03 04:34:00,72.3,64.4,29.90,SSE,148,0.0,0.0,76,0.00,,,0.00,meteohub,2013-09-03 09:34:00,
2013-09-03 04:39:00,72.3,64.4,29.90,SSE,148,0.0,0.0,76,0.00,,,0.00,meteohub,2013-09-03 09:39:00,
2013-09-03 04:44:00,72.1,64.2,29.90,SSE,148,0.0,0.0,76,0.00,,,0.00,meteohub,2013-09-03 09:44:00,
2013-09-03 04:49:00,72.0,64.0,29.90,SSE,148,0.0,0.0,76,0.00,,,0.00,meteohub,2013-09-03 09:49:00,
2013-09-03 04:54:00,71.8,63.9,29.90,SSE,148,0.0,0.0,76,0.00,,,0.00,meteohub,2013-09-03 09:54:00,
2013-09-03 04:59:00,71.4,63.5,29.90,SSE,148,0.0,0.0,76,0.00,,,0.00,meteohub,2013-09-03 09:59:00,
2013-09-03 05:04:00,71.2,63.3,29.90,SSE,148,0.0,0.0,76,0.00,,,0.00,meteohub,2013-09-03 10:04:00,
2013-09-03 05:09:00,71.1,63.5,29.90,SSE,148,0.0,0.0,77,0.00,,,0.00,meteohub,2013-09-03 10:09:00,
2013-09-03 05:14:00,71.1,63.5,29.90,SSE,149,0.0,0.0,77,0.00,,,0.00,meteohub,2013-09-03 10:14:00,
2013-09-03 05:19:00,71.1,63.5,29.90,SSE,148,0.0,0.0,77,0.00,,,0.00,meteohub,2013-09-03 10:19:00,
2013-09-03 05:24:00,71.1,63.5,29.90,SSE,148,0.0,0.0,77,0.00,,,0.00,meteohub,2013-09-03 10:24:00,
2013-09-03 05:29:00,70.9,63.3,29.91,SSE,148,0.0,0.0,77,0.00,,,0.00,meteohub,2013-09-03 10:29:00,
2013-09-03 05:34:00,70.9,63.3,29.91,SSE,149,0.0,0.0,77,0.00,,,0.00,meteohub,2013-09-03 10:34:00,
2013-09-03 05:39:00,70.5,63.0,29.91,SSE,148,0.0,0.0,77,0.00,,,0.00,meteohub,2013-09-03 10:39:00,
2013-09-03 05:44:00,70.5,63.0,29.91,SSE,148,0.0,0.0,77,0.00,,,0.00,meteohub,2013-09-03 10:44:00,
2013-09-03 05:49:00,70.5,63.0,29.91,SSE,148,0.0,0.0,77,0.00,,,0.00,meteohub,2013-09-03 10:49:00,
2013-09-03 05:54:00,70.5,63.3,29.91,SSE,149,0.0,0.0,78,0.00,,,0.00,meteohub,2013-09-03 10:54:00,
2013-09-03 05:59:00,70.9,63.7,29.91,SSE,148,0.0,0.0,78,0.00,,,0.00,meteohub,2013-09-03 10:59:00,
2013-09-03 06:04:00,70.9,63.7,29.91,SSE,148,0.0,0.0,78,0.00,,,0.00,meteohub,2013-09-03 11:04:00,
2013-09-03 06:09:00,71.1,63.5,29.91,SSE,148,0.0,0.0,77,0.00,,,0.00,meteohub,2013-09-03 11:09:00,
2013-09-03 06:14:00,71.1,63.5,29.91,SSE,149,0.0,0.0,77,0.00,,,0.00,meteohub,2013-09-03 11:14:00,
2013-09-03 06:19:00,71.1,63.9,29.91,SSE,148,0.0,0.0,78,0.00,,,0.00,meteohub,2013-09-03 11:19:00,
2013-09-03 06:24:00,71.1,63.9,29.91,SSE,148,0.0,0.0,78,0.00,,,0.00,meteohub,2013-09-03 11:24:00,
2013-09-03 06:29:00,71.1,63.9,29.91,SSE,149,0.0,1.0,78,0.00,,,0.00,meteohub,2013-09-03 11:29:00,
2013-09-03 06:34:00,71.1,63.9,29.91,SSE,148,0.0,1.0,78,0.00,,,0.00,meteohub,2013-09-03 11:34:00,
2013-09-03 06:39:00,71.1,63.9,29.91,SSE,148,0.0,1.0,78,0.00,,,0.00,meteohub,2013-09-03 11:39:00,
2013-09-03 06:44:00,71.1,63.9,29.92,SSE,149,0.0,0.0,78,0.00,,,0.00,meteohub,2013-09-03 11:44:00,
2013-09-03 06:49:00,71.1,63.9,29.92,SSE,148,0.0,0.0,78,0.00,,,0.00,meteohub,2013-09-03 11:49:00,
2013-09-03 06:54:00,71.2,64.0,29.92,SSE,148,0.0,0.0,78,0.00,,,0.00,meteohub,2013-09-03 11:54:00,
2013-09-03 06:59:00,71.2,63.7,29.92,SSE,148,0.0,0.0,77,0.00,,,0.00,meteohub,2013-09-03 11:59:00,
2013-09-03 07:04:00,71.2,63.7,29.93,SSE,148,0.0,0.0,77,0.00,,,0.00,meteohub,2013-09-03 12:04:00,
2013-09-03 07:09:00,71.1,63.5,29.93,NW,323,0.0,4.0,77,0.00,,,0.00,meteohub,2013-09-03 12:09:00,
2013-09-03 07:14:00,71.1,63.5,29.93,NNW,340,0.0,4.0,77,0.00,,,0.00,meteohub,2013-09-03 12:14:00,
2013-09-03 07:19:00,70.7,63.5,29.93,NNW,343,6.0,7.0,78,0.00,,,0.00,meteohub,2013-09-03 12:19:00,
2013-09-03 07:24:00,70.5,63.3,29.93,NNW,342,0.0,8.0,78,0.00,,,0.00,meteohub,2013-09-03 12:24:00,
2013-09-03 07:29:00,70.3,63.1,29.93,NNW,342,0.0,8.0,78,0.00,,,0.00,meteohub,2013-09-03 12:29:00,
2013-09-03 07:34:00,70.2,63.3,29.94,NNW,338,0.0,8.0,79,0.00,,,0.00,meteohub,2013-09-03 12:34:00,
2013-09-03 07:40:00,70.3,63.5,29.94,NNW,346,0.0,8.0,79,0.00,,,0.00,meteohub,2013-09-03 12:40:00,
2013-09-03 07:45:00,70.5,63.3,29.93,North,5,0.0,8.0,78,0.00,,,0.00,meteohub,2013-09-03 12:45:00,
2013-09-03 07:50:00,70.7,63.5,29.94,North,350,0.0,8.0,78,0.00,,,0.00,meteohub,2013-09-03 12:50:00,
2013-09-03 07:55:00,71.1,63.9,29.94,North,350,0.0,6.0,78,0.00,,,0.00,meteohub,2013-09-03 12:55:00,
2013-09-03 08:00:00,71.2,64.0,29.94,North,0,0.0,5.0,78,0.00,,,0.00,meteohub,2013-09-03 13:00:00,
2013-09-03 08:05:00,71.4,63.9,29.94,North,5,0.0,6.0,77,0.00,,,0.00,meteohub,2013-09-03 13:05:00,
2013-09-03 08:10:00,71.8,64.2,29.94,North,0,0.0,6.0,77,0.00,,,0.00,meteohub,2013-09-03 13:10:00,
2013-09-03 08:15:00,72.1,64.2,29.94,North,355,0.0,6.0,76,0.00,,,0.00,meteohub,2013-09-03 13:15:00,
2013-09-03 08:20:00,72.7,64.8,29.94,North,0,0.0,6.0,76,0.00,,,0.00,meteohub,2013-09-03 13:20:00,
2013-09-03 08:25:00,73.0,64.6,29.95,NW,312,2.0,5.0,75,0.00,,,0.00,meteohub,2013-09-03 13:25:00,
2013-09-03 08:30:00,73.6,65.1,29.95,NNE,17,2.0,6.0,75,0.00,,,0.00,meteohub,2013-09-03 13:30:00,
2013-09-03 08:35:00,73.9,65.1,29.95,NNE,13,0.0,7.0,74,0.00,,,0.00,meteohub,2013-09-03 13:35:00,
2013-09-03 08:40:00,74.7,65.5,29.95,NE,40,1.0,8.0,73,0.00,,,0.00,meteohub,2013-09-03 13:40:00,
2013-09-03 08:45:00,75.2,65.5,29.95,NNE,26,0.0,8.0,72,0.00,,,0.00,meteohub,2013-09-03 13:45:00,
2013-09-03 08:50:00,75.7,65.7,29.95,North,355,5.0,8.0,71,0.00,,,0.00,meteohub,2013-09-03 13:50:00,
2013-09-03 08:55:00,76.5,66.0,29.95,North,0,2.0,8.0,70,0.00,,,0.00,meteohub,2013-09-03 13:55:00,
2013-09-03 09:00:00,77.2,66.2,29.96,North,351,0.0,7.0,69,0.00,,,0.00,meteohub,2013-09-03 14:00:00,
2013-09-03 09:05:00,77.7,66.4,29.95,North,5,1.0,9.0,68,0.00,,,0.00,meteohub,2013-09-03 14:05:00,
2013-09-03 09:10:00,78.4,66.6,29.96,NNW,327,1.0,9.0,67,0.00,,,0.00,meteohub,2013-09-03 14:10:00,
2013-09-03 09:15:00,79.0,66.6,29.96,NNW,327,0.0,9.0,66,0.00,,,0.00,meteohub,2013-09-03 14:15:00,
2013-09-03 09:20:00,79.5,66.2,29.96,NNW,342,4.0,8.0,64,0.00,,,0.00,meteohub,2013-09-03 14:20:00,
2013-09-03 09:25:00,80.2,66.6,29.96,NNW,344,6.0,6.0,63,0.00,,,0.00,meteohub,2013-09-03 14:25:00,
2013-09-03 09:30:00,80.4,66.7,29.96,NNW,333,0.0,7.0,63,0.00,,,0.00,meteohub,2013-09-03 14:30:00,
2013-09-03 09:35:00,81.0,66.7,29.96,NNW,331,1.0,9.0,62,0.00,,,0.00,meteohub,2013-09-03 14:35:00,
2013-09-03 09:40:00,81.3,66.6,29.96,North,350,4.0,9.0,61,0.00,,,0.00,meteohub,2013-09-03 14:40:00,
2013-09-03 09:45:00,82.0,66.7,29.96,NNW,344,7.0,9.0,60,0.00,,,0.00,meteohub,2013-09-03 14:45:00,
2013-09-03 09:50:00,82.0,66.4,29.96,North,351,2.0,8.0,59,0.00,,,0.00,meteohub,2013-09-03 14:50:00,
2013-09-03 09:55:00,82.8,66.9,29.96,NNW,343,0.0,9.0,59,0.00,,,0.00,meteohub,2013-09-03 14:55:00,
2013-09-03 10:00:00,83.3,66.6,29.96,NNW,338,2.0,9.0,57,0.00,,,0.00,meteohub,2013-09-03 15:00:00,
2013-09-03 10:05:00,83.8,66.9,29.96,NNW,333,5.0,9.0,57,0.00,,,0.00,meteohub,2013-09-03 15:05:00,
2013-09-03 10:10:00,83.8,66.4,29.96,NNW,333,4.0,9.0,56,0.00,,,0.00,meteohub,2013-09-03 15:10:00,
2013-09-03 10:15:00,84.6,67.1,29.96,North,10,4.0,9.0,56,0.00,,,0.00,meteohub,2013-09-03 15:15:00,
2013-09-03 10:20:00,85.1,66.6,29.96,North,0,0.0,9.0,54,0.00,,,0.00,meteohub,2013-09-03 15:20:00,
2013-09-03 10:25:00,85.5,66.9,29.96,NNE,27,4.0,6.0,54,0.00,,,0.00,meteohub,2013-09-03 15:25:00,
2013-09-03 10:30:00,85.8,67.3,29.96,NNE,30,4.0,6.0,54,0.00,,,0.00,meteohub,2013-09-03 15:30:00,
2013-09-03 10:35:00,86.2,67.6,29.96,NNE,33,2.0,6.0,54,0.00,,,0.00,meteohub,2013-09-03 15:35:00,
2013-09-03 10:40:00,86.4,67.8,29.97,NNE,22,3.0,6.0,54,0.00,,,0.00,meteohub,2013-09-03 15:40:00,
2013-09-03 10:45:00,87.1,67.3,29.97,NNW,343,2.0,6.0,52,0.00,,,0.00,meteohub,2013-09-03 15:45:00,
2013-09-03 10:50:00,87.1,67.3,29.97,NNW,338,0.0,7.0,52,0.00,,,0.00,meteohub,2013-09-03 15:50:00,
2013-09-03 10:55:00,87.4,67.6,29.96,NNW,340,0.0,7.0,52,0.00,,,0.00,meteohub,2013-09-03 15:55:00,
2013-09-03 11:00:00,88.2,67.8,29.96,NNW,342,0.0,7.0,51,0.00,,,0.00,meteohub,2013-09-03 16:00:00,
2013-09-03 11:05:00,89.2,68.2,29.96,North,355,0.0,4.0,50,0.00,,,0.00,meteohub,2013-09-03 16:05:00,
2013-09-03 11:11:00,90.1,68.4,29.96,NNW,348,0.0,4.0,49,0.00,,,0.00,meteohub,2013-09-03 16:11:00,
2013-09-03 11:16:00,90.9,67.8,29.96,NW,313,0.0,6.0,47,0.00,,,0.00,meteohub,2013-09-03 16:16:00,
2013-09-03 11:21:00,91.0,68.0,29.96,NW,313,0.0,6.0,47,0.00,,,0.00,meteohub,2013-09-03 16:21:00,
2013-09-03 11:26:00,91.8,67.5,29.96,WNW,302,1.0,6.0,45,0.00,,,0.00,meteohub,2013-09-03 16:26:00,
2013-09-03 11:31:00,92.7,66.9,29.96,NW,305,5.0,5.0,43,0.00,,,0.00,meteohub,2013-09-03 16:31:00,
2013-09-03 11:36:00,92.7,66.2,29.96,WSW,249,1.0,6.0,42,0.00,,,0.00,meteohub,2013-09-03 16:36:00,
2013-09-03 11:41:00,92.7,66.2,29.96,SSE,164,0.0,6.0,42,0.00,,,0.00,meteohub,2013-09-03 16:41:00,
2013-09-03 11:46:00,92.8,66.4,29.96,NW,323,2.0,6.0,42,0.00,,,0.00,meteohub,2013-09-03 16:46:00,
2013-09-03 11:51:00,92.5,66.0,29.96,NNW,342,0.0,6.0,42,0.00,,,0.00,meteohub,2013-09-03 16:51:00,
2013-09-03 11:56:00,92.3,65.8,29.96,WNW,296,2.0,6.0,42,0.00,,,0.00,meteohub,2013-09-03 16:56:00,
2013-09-03 12:01:00,91.9,65.5,29.95,NW,306,0.0,7.0,42,0.00,,,0.00,meteohub,2013-09-03 17:01:00,
2013-09-03 12:06:00,92.7,66.2,29.95,NW,305,0.0,7.0,42,0.00,,,0.00,meteohub,2013-09-03 17:06:00,
2013-09-03 12:11:00,93.6,66.4,29.95,South,182,4.0,7.0,41,0.00,,,0.00,meteohub,2013-09-03 17:11:00,
2013-09-03 12:16:00,93.7,65.8,29.95,ENE,65,1.0,8.0,40,0.00,,,0.00,meteohub,2013-09-03 17:16:00,
2013-09-03 12:21:00,93.6,66.4,29.95,SSW,196,0.0,8.0,41,0.00,,,0.00,meteohub,2013-09-03 17:21:00,
2013-09-03 12:26:00,93.4,65.5,29.95,ENE,62,5.0,8.0,40,0.00,,,0.00,meteohub,2013-09-03 17:26:00,
2013-09-03 12:31:00,92.7,65.5,29.95,NNW,338,0.0,8.0,41,0.00,,,0.00,meteohub,2013-09-03 17:31:00,
2013-09-03 12:36:00,92.7,65.5,29.94,NNW,340,0.0,8.0,41,0.00,,,0.00,meteohub,2013-09-03 17:36:00,
2013-09-03 12:41:00,93.2,64.6,29.94,SSE,151,0.0,7.0,39,0.00,,,0.00,meteohub,2013-09-03 17:41:00,
2013-09-03 12:46:00,93.7,64.2,29.94,SE,127,1.0,7.0,38,0.00,,,0.00,meteohub,2013-09-03 17:46:00,
2013-09-03 12:51:00,93.9,64.4,29.94,NE,42,0.0,7.0,38,0.00,,,0.00,meteohub,2013-09-03 17:51:00,
2013-09-03 12:56:00,94.5,64.9,29.94,North,9,1.0,7.0,38,0.00,,,0.00,meteohub,2013-09-03 17:56:00,
2013-09-03 13:01:00,94.5,64.2,29.94,NE,44,0.0,6.0,37,0.00,,,0.00,meteohub,2013-09-03 18:01:00,
2013-09-03 13:06:00,94.6,65.8,29.93,NW,319,0.0,8.0,39,0.00,,,0.00,meteohub,2013-09-03 18:06:00,
2013-09-03 13:11:00,94.6,64.4,29.94,North,10,2.0,10.0,37,0.00,,,0.00,meteohub,2013-09-03 18:11:00,
2013-09-03 13:16:00,94.1,63.9,29.94,North,349,0.0,10.0,37,0.00,,,0.00,meteohub,2013-09-03 18:16:00,
2013-09-03 13:21:00,93.7,64.2,29.93,North,355,0.0,10.0,38,0.00,,,0.00,meteohub,2013-09-03 18:21:00,
2013-09-03 13:26:00,93.6,64.2,29.93,NNE,27,4.0,8.0,38,0.00,,,0.00,meteohub,2013-09-03 18:26:00,
2013-09-03 13:31:00,93.6,64.9,29.93,NNE,31,2.0,11.0,39,0.00,,,0.00,meteohub,2013-09-03 18:31:00,
2013-09-03 13:36:00,93.9,64.4,29.92,NW,315,0.0,11.0,38,0.00,,,0.00,meteohub,2013-09-03 18:36:00,
2013-09-03 13:41:00,94.8,64.4,29.92,East,96,0.0,11.0,37,0.00,,,0.00,meteohub,2013-09-03 18:41:00,
2013-09-03 13:46:00,95.5,61.9,29.92,SE,127,4.0,8.0,33,0.00,,,0.00,meteohub,2013-09-03 18:46:00,
2013-09-03 13:51:00,96.3,63.3,29.92,ENE,64,2.0,8.0,34,0.00,,,0.00,meteohub,2013-09-03 18:51:00,
2013-09-03 13:56:00,96.3,63.3,29.91,ENE,73,3.0,8.0,34,0.00,,,0.00,meteohub,2013-09-03 18:56:00,
2013-09-03 14:01:00,96.3,61.5,29.91,North,355,0.0,7.0,32,0.00,,,0.00,meteohub,2013-09-03 19:01:00,
2013-09-03 14:06:00,95.7,62.8,29.91,SSE,148,1.0,6.0,34,0.00,,,0.00,meteohub,2013-09-03 19:06:00,
2013-09-03 14:11:00,95.7,63.7,29.91,SSE,165,6.0,6.0,35,0.00,,,0.00,meteohub,2013-09-03 19:11:00,
2013-09-03 14:16:00,96.3,63.3,29.91,ESE,107,2.0,12.0,34,0.00,,,0.00,meteohub,2013-09-03 19:16:00,
2013-09-03 14:21:00,96.3,62.4,29.91,ENE,73,2.0,12.0,33,0.00,,,0.00,meteohub,2013-09-03 19:21:00,
2013-09-03 14:26:00,95.5,61.9,29.91,NNE,29,0.0,12.0,33,0.00,,,0.00,meteohub,2013-09-03 19:26:00,
2013-09-03 14:31:00,94.5,61.7,29.91,NNE,25,0.0,11.0,34,0.00,,,0.00,meteohub,2013-09-03 19:31:00,
2013-09-03 14:36:00,93.9,63.0,29.90,East,97,4.0,8.0,36,0.00,,,0.00,meteohub,2013-09-03 19:36:00,
2013-09-03 14:41:00,93.7,61.9,29.90,North,10,0.0,6.0,35,0.00,,,0.00,meteohub,2013-09-03 19:41:00,
2013-09-03 14:46:00,94.3,63.1,29.90,ENE,66,3.0,6.0,36,0.00,,,0.00,meteohub,2013-09-03 19:46:00,
2013-09-03 14:51:00,95.2,61.5,29.90,NNE,31,0.0,6.0,33,0.00,,,0.00,meteohub,2013-09-03 19:51:00,
2013-09-03 14:56:00,95.2,61.5,29.89,NNE,24,0.0,6.0,33,0.00,,,0.00,meteohub,2013-09-03 19:56:00,
2013-09-03 15:01:00,95.4,61.7,29.89,SE,132,0.0,5.0,33,0.00,,,0.00,meteohub,2013-09-03 20:01:00,
2013-09-03 15:06:00,95.4,62.6,29.89,SE,132,1.0,5.0,34,0.00,,,0.00,meteohub,2013-09-03 20:06:00,
2013-09-03 15:11:00,95.2,62.4,29.88,ENE,74,2.0,5.0,34,0.00,,,0.00,meteohub,2013-09-03 20:11:00,
2013-09-03 15:16:00,95.5,62.8,29.88,SE,133,2.0,5.0,34,0.00,,,0.00,meteohub,2013-09-03 20:16:00,
2013-09-03 15:21:00,96.3,62.4,29.88,South,186,2.0,13.0,33,0.00,,,0.00,meteohub,2013-09-03 20:21:00,
2013-09-03 15:26:00,96.8,62.1,29.87,SE,136,0.0,13.0,32,0.00,,,0.00,meteohub,2013-09-03 20:26:00,
2013-09-03 15:31:00,97.0,62.2,29.87,SE,125,4.0,13.0,32,0.00,,,0.00,meteohub,2013-09-03 20:31:00,
2013-09-03 15:36:00,97.2,61.5,29.87,SSE,161,0.0,9.0,31,0.00,,,0.00,meteohub,2013-09-03 20:36:00,
2013-09-03 15:41:00,96.6,62.8,29.87,SE,140,0.0,10.0,33,0.00,,,0.00,meteohub,2013-09-03 20:41:00,
2013-09-03 15:46:00,96.4,61.7,29.87,SE,139,0.0,12.0,32,0.00,,,0.00,meteohub,2013-09-03 20:46:00,
2013-09-03 15:51:00,96.6,61.0,29.86,ENE,74,3.0,12.0,31,0.00,,,0.00,meteohub,2013-09-03 20:51:00,
2013-09-03 15:56:00,96.8,61.2,29.86,ESE,120,1.0,9.0,31,0.00,,,0.00,meteohub,2013-09-03 20:56:00,
2013-09-03 16:01:00,97.0,58.5,29.86,SSE,152,1.0,11.0,28,0.00,,,0.00,meteohub,2013-09-03 21:01:00,
2013-09-03 16:06:00,97.0,58.5,29.86,East,80,0.0,11.0,28,0.00,,,0.00,meteohub,2013-09-03 21:06:00,
2013-09-03 16:11:00,97.3,59.7,29.86,East,80,3.0,11.0,29,0.00,,,0.00,meteohub,2013-09-03 21:11:00,
2013-09-03 16:16:00,97.5,59.9,29.86,ESE,117,0.0,11.0,29,0.00,,,0.00,meteohub,2013-09-03 21:16:00,
2013-09-03 16:21:00,97.3,60.8,29.85,WNW,299,4.0,6.0,30,0.00,,,0.00,meteohub,2013-09-03 21:21:00,
2013-09-03 16:26:00,96.8,59.4,29.85,ENE,67,1.0,6.0,29,0.00,,,0.00,meteohub,2013-09-03 21:26:00,
2013-09-03 16:31:00,96.6,59.2,29.85,SSE,167,5.0,16.0,29,0.00,,,0.00,meteohub,2013-09-03 21:31:00,
2013-09-03 16:36:00,96.6,59.2,29.85,SE,128,0.0,16.0,29,0.00,,,0.00,meteohub,2013-09-03 21:36:00,
2013-09-03 16:41:00,97.0,59.4,29.84,SSE,162,1.0,9.0,29,0.00,,,0.00,meteohub,2013-09-03 21:41:00,
2013-09-03 16:46:00,97.5,59.0,29.84,East,82,0.0,9.0,28,0.00,,,0.00,meteohub,2013-09-03 21:46:00,
2013-09-03 16:51:00,97.5,59.0,29.84,ENE,61,0.0,7.0,28,0.00,,,0.00,meteohub,2013-09-03 21:51:00,
2013-09-03 16:56:00,97.5,59.0,29.84,ENE,61,7.0,12.0,28,0.00,,,0.00,meteohub,2013-09-03 21:56:00,
2013-09-03 17:01:00,97.3,58.8,29.84,SE,135,1.0,12.0,28,0.00,,,0.00,meteohub,2013-09-03 22:01:00,
2013-09-03 17:06:00,97.2,58.6,29.84,ESE,105,0.0,11.0,28,0.00,,,0.00,meteohub,2013-09-03 22:06:00,
2013-09-03 17:11:00,97.3,59.7,29.84,SE,126,0.0,11.0,29,0.00,,,0.00,meteohub,2013-09-03 22:11:00,
2013-09-03 17:16:00,97.5,59.9,29.84,South,171,0.0,11.0,29,0.00,,,0.00,meteohub,2013-09-03 22:16:00,
2013-09-03 17:21:00,97.9,59.2,29.83,South,171,1.0,11.0,28,0.00,,,0.00,meteohub,2013-09-03 22:21:00,
2013-09-03 17:26:00,97.5,59.0,29.83,South,179,2.0,8.0,28,0.00,,,0.00,meteohub,2013-09-03 22:26:00,
2013-09-03 17:31:00,97.7,59.0,29.83,ESE,114,2.0,8.0,28,0.00,,,0.00,meteohub,2013-09-03 22:31:00,
2013-09-03 17:36:00,98.1,58.5,29.83,NW,325,1.0,6.0,27,0.00,,,0.00,meteohub,2013-09-03 22:36:00,
2013-09-03 17:41:00,98.2,58.5,29.83,NNW,340,2.0,6.0,27,0.00,,,0.00,meteohub,2013-09-03 22:41:00,
2013-09-03 17:46:00,98.2,58.5,29.83,ESE,111,2.0,6.0,27,0.00,,,0.00,meteohub,2013-09-03 22:46:00,
2013-09-03 17:51:00,97.9,58.3,29.83,SE,138,2.0,6.0,27,0.00,,,0.00,meteohub,2013-09-03 22:51:00,
2013-09-03 17:56:00,97.7,58.1,29.83,SE,127,2.0,9.0,27,0.00,,,0.00,meteohub,2013-09-03 22:56:00,
2013-09-03 18:01:00,97.3,58.8,29.83,East,84,0.0,13.0,28,0.00,,,0.00,meteohub,2013-09-03 23:01:00,
2013-09-03 18:07:00,97.3,57.7,29.83,SE,141,0.0,13.0,27,0.00,,,0.00,meteohub,2013-09-03 23:07:00,
2013-09-03 18:12:00,97.3,58.8,29.83,ENE,59,0.0,8.0,28,0.00,,,0.00,meteohub,2013-09-03 23:12:00,
2013-09-03 18:17:00,97.5,57.9,29.83,NE,42,0.0,8.0,27,0.00,,,0.00,meteohub,2013-09-03 23:17:00,
2013-09-03 18:22:00,97.3,58.8,29.83,ESE,116,0.0,8.0,28,0.00,,,0.00,meteohub,2013-09-03 23:22:00,
2013-09-03 18:27:00,97.2,57.6,29.83,ENE,74,2.0,8.0,27,0.00,,,0.00,meteohub,2013-09-03 23:27:00,
2013-09-03 18:32:00,96.4,57.9,29.83,NE,41,3.0,8.0,28,0.00,,,0.00,meteohub,2013-09-03 23:32:00,
2013-09-03 18:37:00,95.7,57.4,29.83,East,90,0.0,10.0,28,0.00,,,0.00,meteohub,2013-09-03 23:37:00,
2013-09-03 18:42:00,95.7,57.4,29.83,SE,134,1.0,10.0,28,0.00,,,0.00,meteohub,2013-09-03 23:42:00,
2013-09-03 18:47:00,95.7,57.4,29.83,SE,134,0.0,10.0,28,0.00,,,0.00,meteohub,2013-09-03 23:47:00,
2013-09-03 18:52:00,96.1,57.7,29.83,ESE,107,0.0,7.0,28,0.00,,,0.00,meteohub,2013-09-03 23:52:00,
2013-09-03 18:57:00,96.3,57.9,29.83,South,186,0.0,5.0,28,0.00,,,0.00,meteohub,2013-09-03 23:57:00,
2013-09-03 19:02:00,96.3,57.9,29.83,ESE,115,1.0,9.0,28,0.00,,,0.00,meteohub,2013-09-04 00:02:00,
2013-09-03 19:07:00,96.3,56.8,29.83,SSE,163,1.0,9.0,27,0.00,,,0.00,meteohub,2013-09-04 00:07:00,
2013-09-03 19:12:00,96.1,57.7,29.83,ESE,123,2.0,9.0,28,0.00,,,0.00,meteohub,2013-09-04 00:12:00,
2013-09-03 19:17:00,95.9,57.6,29.83,SE,142,0.0,9.0,28,0.00,,,0.00,meteohub,2013-09-04 00:17:00,
2013-09-03 19:22:00,95.7,57.4,29.83,SSE,161,1.0,9.0,28,0.00,,,0.00,meteohub,2013-09-04 00:22:00,
2013-09-03 19:27:00,95.4,59.9,29.83,ESE,122,4.0,9.0,31,0.00,,,0.00,meteohub,2013-09-04 00:27:00,
2013-09-03 19:32:00,94.8,61.2,29.83,SSE,159,6.0,11.0,33,0.00,,,0.00,meteohub,2013-09-04 00:32:00,
2013-09-03 19:37:00,94.1,61.5,29.83,South,191,1.0,12.0,34,0.00,,,0.00,meteohub,2013-09-04 00:37:00,
2013-09-03 19:42:00,93.7,61.2,29.83,SSE,160,0.0,12.0,34,0.00,,,0.00,meteohub,2013-09-04 00:42:00,
2013-09-03 19:47:00,93.4,61.7,29.83,SE,141,5.0,12.0,35,0.00,,,0.00,meteohub,2013-09-04 00:47:00,
2013-09-03 19:52:00,92.8,61.9,29.83,SE,141,0.0,9.0,36,0.00,,,0.00,meteohub,2013-09-04 00:52:00,
2013-09-03 19:57:00,92.5,61.7,29.83,SSE,152,2.0,9.0,36,0.00,,,0.00,meteohub,2013-09-04 00:57:00,
2013-09-03 20:02:00,91.9,61.9,29.83,South,174,0.0,9.0,37,0.00,,,0.00,meteohub,2013-09-04 01:02:00,
2013-09-03 20:07:00,91.6,61.7,29.83,SE,143,0.0,8.0,37,0.00,,,0.00,meteohub,2013-09-04 01:07:00,
2013-09-03 20:12:00,91.2,62.1,29.83,SE,139,2.0,8.0,38,0.00,,,0.00,meteohub,2013-09-04 01:12:00,
2013-09-03 20:17:00,90.9,62.4,29.84,SE,139,2.0,8.0,39,0.00,,,0.00,meteohub,2013-09-04 01:17:00,
2013-09-03 20:22:00,90.5,62.2,29.84,SE,139,0.0,8.0,39,0.00,,,0.00,meteohub,2013-09-04 01:22:00,
2013-09-03 20:27:00,90.1,62.6,29.84,SE,138,0.0,7.0,40,0.00,,,0.00,meteohub,2013-09-04 01:27:00,
2013-09-03 20:32:00,89.8,62.2,29.84,SE,138,0.0,7.0,40,0.00,,,0.00,meteohub,2013-09-04 01:32:00,
2013-09-03 20:37:00,89.4,62.6,29.84,SSE,159,0.0,6.0,41,0.00,,,0.00,meteohub,2013-09-04 01:37:00,
2013-09-03 20:42:00,89.2,62.4,29.85,SSE,155,0.0,6.0,41,0.00,,,0.00,meteohub,2013-09-04 01:42:00,
2013-09-03 20:47:00,88.9,62.8,29.85,SSE,159,0.0,6.0,42,0.00,,,0.00,meteohub,2013-09-04 01:47:00,
2013-09-03 20:52:00,88.5,63.1,29.85,SSE,159,0.0,7.0,43,0.00,,,0.00,meteohub,2013-09-04 01:52:00,
2013-09-03 20:57:00,88.2,62.8,29.85,SSE,153,0.0,7.0,43,0.00,,,0.00,meteohub,2013-09-04 01:57:00,
2013-09-03 21:02:00,88.0,63.3,29.85,SSE,150,0.0,7.0,44,0.00,,,0.00,meteohub,2013-09-04 02:02:00,
2013-09-03 21:07:00,87.6,63.0,29.86,SSE,149,0.0,7.0,44,0.00,,,0.00,meteohub,2013-09-04 02:07:00,
2013-09-03 21:12:00,87.4,63.5,29.86,SSE,149,0.0,6.0,45,0.00,,,0.00,meteohub,2013-09-04 02:12:00,
2013-09-03 21:17:00,87.3,63.3,29.86,SSE,149,0.0,6.0,45,0.00,,,0.00,meteohub,2013-09-04 02:17:00,
2013-09-03 21:22:00,87.1,63.9,29.86,SE,145,0.0,5.0,46,0.00,,,0.00,meteohub,2013-09-04 02:22:00,
2013-09-03 21:27:00,86.7,63.5,29.86,SE,145,0.0,1.0,46,0.00,,,0.00,meteohub,2013-09-04 02:27:00,
2013-09-03 21:32:00,86.5,63.3,29.86,SE,145,0.0,1.0,46,0.00,,,0.00,meteohub,2013-09-04 02:32:00,
2013-09-03 21:37:00,86.4,63.7,29.87,SE,145,0.0,0.0,47,0.00,,,0.00,meteohub,2013-09-04 02:37:00,
2013-09-03 21:42:00,86.2,63.5,29.87,SE,145,0.0,0.0,47,0.00,,,0.00,meteohub,2013-09-04 02:42:00,
2013-09-03 21:47:00,85.6,63.7,29.87,SE,145,0.0,0.0,48,0.00,,,0.00,meteohub,2013-09-04 02:47:00,
2013-09-03 21:52:00,85.5,63.5,29.87,SE,145,0.0,0.0,48,0.00,,,0.00,meteohub,2013-09-04 02:52:00,
2013-09-03 21:57:00,85.1,63.9,29.87,SE,145,0.0,0.0,49,0.00,,,0.00,meteohub,2013-09-04 02:57:00,
2013-09-03 22:02:00,84.7,63.5,29.87,SE,145,0.0,0.0,49,0.00,,,0.00,meteohub,2013-09-04 03:02:00,
2013-09-03 22:07:00,84.4,63.7,29.87,SE,145,0.0,0.0,50,0.00,,,0.00,meteohub,2013-09-04 03:07:00,
2013-09-03 22:12:00,84.0,63.9,29.87,SE,145,0.0,0.0,51,0.00,,,0.00,meteohub,2013-09-04 03:12:00,
2013-09-03 22:17:00,83.8,63.9,29.87,SE,145,0.0,0.0,51,0.00,,,0.00,meteohub,2013-09-04 03:17:00,
2013-09-03 22:22:00,83.5,64.0,29.88,SE,145,0.0,0.0,52,0.00,,,0.00,meteohub,2013-09-04 03:22:00,
2013-09-03 22:27:00,83.1,63.7,29.88,SE,145,0.0,0.0,52,0.00,,,0.00,meteohub,2013-09-04 03:27:00,
2013-09-03 22:32:00,82.9,63.5,29.88,SE,145,0.0,0.0,52,0.00,,,0.00,meteohub,2013-09-04 03:32:00,
2013-09-03 22:37:00,82.8,63.9,29.88,SE,145,0.0,0.0,53,0.00,,,0.00,meteohub,2013-09-04 03:37:00,
2013-09-03 22:42:00,82.6,63.7,29.88,SE,145,0.0,0.0,53,0.00,,,0.00,meteohub,2013-09-04 03:42:00,
2013-09-03 22:47:00,82.6,64.2,29.88,SE,145,0.0,0.0,54,0.00,,,0.00,meteohub,2013-09-04 03:47:00,
2013-09-03 22:52:00,82.4,64.0,29.88,SE,145,0.0,0.0,54,0.00,,,0.00,meteohub,2013-09-04 03:52:00,
2013-09-03 22:57:00,82.4,64.0,29.88,SE,145,0.0,0.0,54,0.00,,,0.00,meteohub,2013-09-04 03:57:00,
2013-09-03 23:01:00,82.2,63.9,29.88,SE,145,0.0,0.0,54,0.00,,,0.00,meteohub,2013-09-04 04:01:00,
2013-09-03 23:02:00,82.2,63.9,29.88,SE,145,0.0,0.0,54,0.00,,,0.00,meteohub,2013-09-04 04:02:00,
2013-09-03 23:07:00,82.2,64.4,29.88,SE,145,0.0,0.0,55,0.00,,,0.00,meteohub,2013-09-04 04:07:00,
2013-09-03 23:12:00,82.2,64.4,29.88,SE,145,0.0,0.0,55,0.00,,,0.00,meteohub,2013-09-04 04:12:00,
2013-09-03 23:17:00,82.2,63.9,29.89,SE,145,0.0,0.0,54,0.00,,,0.00,meteohub,2013-09-04 04:17:00,
2013-09-03 23:22:00,82.2,63.9,29.89,SE,145,0.0,0.0,54,0.00,,,0.00,meteohub,2013-09-04 04:22:00,
2013-09-03 23:27:00,82.2,64.4,29.89,SE,145,0.0,0.0,55,0.00,,,0.00,meteohub,2013-09-04 04:27:00,
2013-09-03 23:32:00,82.2,64.4,29.89,SE,145,0.0,0.0,55,0.00,,,0.00,meteohub,2013-09-04 04:32:00,
2013-09-03 23:37:00,82.2,64.4,29.89,SE,145,0.0,0.0,55,0.00,,,0.00,meteohub,2013-09-04 04:37:00,
2013-09-03 23:42:00,82.0,64.2,29.89,SE,145,0.0,0.0,55,0.00,,,0.00,meteohub,2013-09-04 04:42:00,
2013-09-03 23:47:00,81.9,64.0,29.89,SE,145,0.0,0.0,55,0.00,,,0.00,meteohub,2013-09-04 04:47:00,
2013-09-03 23:52:00,81.7,63.5,29.89,SE,145,0.0,0.0,54,0.00,,,0.00,meteohub,2013-09-04 04:52:00,
2013-09-03 23:57:00,81.7,62.4,29.89,SE,145,0.0,0.0,52,0.00,,,0.00,meteohub,2013-09-04 04:57:00,